Year,Month,Day,Hour,Minute,Value (Times are PST for windspeed in km/hr)
2014,02,13,00,00,7.40
2014,02,13,00,01,8.70
2014,02,13,00,02,8.00
2014,02,13,00,03,8.60
2014,02,13,00,04,6.10
2014,02,13,00,05,5.30
2014,02,13,00,06,6.40
2014,02,13,00,07,9.20
2014,02,13,00,08,9.70
2014,02,13,00,09,6.30
2014,02,13,00,10,12.00
2014,02,13,00,11,11.20
2014,02,13,00,12,14.20
2014,02,13,00,13,16.90
2014,02,13,00,14,12.40
2014,02,13,00,15,13.60
2014,02,13,00,16,13.00
2014,02,13,00,17,13.00
2014,02,13,00,18,19.00
2014,02,13,00,19,15.60
2014,02,13,00,20,14.50
2014,02,13,00,21,12.30
2014,02,13,00,22,15.30
2014,02,13,00,23,11.60
2014,02,13,00,24,13.10
2014,02,13,00,25,11.60
2014,02,13,00,26,10.50
2014,02,13,00,27,10.90
2014,02,13,00,28,11.00
2014,02,13,00,29,13.10
2014,02,13,00,30,13.80
2014,02,13,00,31,11.60
2014,02,13,00,32,12.00
2014,02,13,00,33,11.50
2014,02,13,00,34,13.60
2014,02,13,00,35,10.30
2014,02,13,00,36,14.20
2014,02,13,00,37,11.90
2014,02,13,00,38,13.20
2014,02,13,00,39,16.90
2014,02,13,00,40,15.30
2014,02,13,00,41,11.70
2014,02,13,00,42,11.30
2014,02,13,00,43,10.00
2014,02,13,00,44,17.60
2014,02,13,00,45,9.30
2014,02,13,00,46,11.00
2014,02,13,00,47,11.80
2014,02,13,00,48,10.30
2014,02,13,00,49,12.50
2014,02,13,00,50,15.40
2014,02,13,00,51,13.90
2014,02,13,00,52,18.50
2014,02,13,00,53,17.90
2014,02,13,00,54,12.30
2014,02,13,00,55,14.00
2014,02,13,00,56,12.80
2014,02,13,00,57,13.60
2014,02,13,00,58,9.40
2014,02,13,00,59,17.40
2014,02,13,01,00,13.00
2014,02,13,01,01,16.30
2014,02,13,01,02,17.80
2014,02,13,01,03,16.90
2014,02,13,01,04,16.70
2014,02,13,01,05,12.20
2014,02,13,01,06,12.60
2014,02,13,01,07,6.20
2014,02,13,01,08,10.20
2014,02,13,01,09,9.80
2014,02,13,01,10,13.30
2014,02,13,01,11,6.40
2014,02,13,01,12,7.70
2014,02,13,01,13,10.60
2014,02,13,01,14,5.80
2014,02,13,01,15,8.50
2014,02,13,01,16,9.00
2014,02,13,01,17,5.90
2014,02,13,01,18,8.70
2014,02,13,01,19,11.40
2014,02,13,01,20,8.90
2014,02,13,01,21,9.30
2014,02,13,01,22,7.90
2014,02,13,01,23,6.60
2014,02,13,01,24,8.60
2014,02,13,01,25,12.80
2014,02,13,01,26,12.20
2014,02,13,01,27,6.30
2014,02,13,01,28,8.10
2014,02,13,01,29,9.20
2014,02,13,01,30,7.30
2014,02,13,01,31,6.20
2014,02,13,01,32,10.20
2014,02,13,01,33,10.10
2014,02,13,01,34,13.40
2014,02,13,01,35,8.70
2014,02,13,01,36,12.60
2014,02,13,01,37,14.90
2014,02,13,01,38,14.20
2014,02,13,01,39,23.40
2014,02,13,01,40,11.50
2014,02,13,01,41,13.20
2014,02,13,01,42,9.40
2014,02,13,01,43,13.90
2014,02,13,01,44,12.40
2014,02,13,01,45,11.50
2014,02,13,01,46,7.90
2014,02,13,01,47,6.70
2014,02,13,01,48,11.30
2014,02,13,01,49,7.40
2014,02,13,01,50,12.40
2014,02,13,01,51,8.00
2014,02,13,01,52,5.50
2014,02,13,01,53,12.20
2014,02,13,01,54,8.20
2014,02,13,01,55,12.20
2014,02,13,01,56,14.60
2014,02,13,01,57,9.00
2014,02,13,01,58,9.70
2014,02,13,01,59,11.30
2014,02,13,02,00,12.90
2014,02,13,02,01,8.80
2014,02,13,02,02,13.00
2014,02,13,02,03,9.70
2014,02,13,02,04,16.70
2014,02,13,02,05,10.70
2014,02,13,02,06,8.70
2014,02,13,02,07,12.70
2014,02,13,02,08,6.50
2014,02,13,02,09,7.80
2014,02,13,02,10,18.60
2014,02,13,02,11,13.20
2014,02,13,02,12,6.80
2014,02,13,02,13,13.60
2014,02,13,02,14,10.30
2014,02,13,02,15,10.20
2014,02,13,02,16,12.50
2014,02,13,02,17,10.80
2014,02,13,02,18,9.40
2014,02,13,02,19,20.20
2014,02,13,02,20,17.00
2014,02,13,02,21,13.60
2014,02,13,02,22,16.90
2014,02,13,02,23,19.20
2014,02,13,02,24,17.20
2014,02,13,02,25,12.40
2014,02,13,02,26,16.80
2014,02,13,02,27,22.50
2014,02,13,02,28,14.20
2014,02,13,02,29,14.30
2014,02,13,02,30,11.30
2014,02,13,02,31,13.30
2014,02,13,02,32,11.30
2014,02,13,02,33,20.00
2014,02,13,02,34,12.40
2014,02,13,02,35,13.80
2014,02,13,02,36,19.80
2014,02,13,02,37,17.20
2014,02,13,02,38,9.10
2014,02,13,02,39,18.20
2014,02,13,02,40,21.00
2014,02,13,02,41,14.10
2014,02,13,02,42,13.30
2014,02,13,02,43,20.00
2014,02,13,02,44,14.30
2014,02,13,02,45,16.20
2014,02,13,02,46,13.50
2014,02,13,02,47,13.60
2014,02,13,02,48,15.90
2014,02,13,02,49,11.20
2014,02,13,02,50,17.20
2014,02,13,02,51,25.70
2014,02,13,02,52,20.80
2014,02,13,02,53,21.10
2014,02,13,02,54,28.30
2014,02,13,02,55,21.20
2014,02,13,02,56,21.50
2014,02,13,02,57,21.80
2014,02,13,02,58,11.70
2014,02,13,02,59,16.80
2014,02,13,03,00,25.20
2014,02,13,03,01,13.60
2014,02,13,03,02,21.40
2014,02,13,03,03,15.50
2014,02,13,03,04,16.70
2014,02,13,03,05,23.30
2014,02,13,03,06,22.90
2014,02,13,03,07,19.90
2014,02,13,03,08,19.50
2014,02,13,03,09,14.30
2014,02,13,03,10,20.50
2014,02,13,03,11,13.30
2014,02,13,03,12,14.60
2014,02,13,03,13,13.40
2014,02,13,03,14,17.30
2014,02,13,03,15,11.60
2014,02,13,03,16,13.30
2014,02,13,03,17,14.50
2014,02,13,03,18,18.50
2014,02,13,03,19,20.00
2014,02,13,03,20,20.70
2014,02,13,03,21,17.40
2014,02,13,03,22,15.20
2014,02,13,03,23,17.10
2014,02,13,03,24,13.20
2014,02,13,03,25,14.90
2014,02,13,03,26,11.00
2014,02,13,03,27,11.70
2014,02,13,03,28,8.10
2014,02,13,03,29,11.20
2014,02,13,03,30,11.00
2014,02,13,03,31,11.20
2014,02,13,03,32,10.50
2014,02,13,03,33,10.60
2014,02,13,03,34,11.00
2014,02,13,03,35,13.60
2014,02,13,03,36,10.10
2014,02,13,03,37,7.80
2014,02,13,03,38,10.30
2014,02,13,03,39,6.40
2014,02,13,03,40,4.90
2014,02,13,03,41,9.30
2014,02,13,03,42,5.60
2014,02,13,03,43,3.80
2014,02,13,03,44,10.00
2014,02,13,03,45,10.80
2014,02,13,03,46,12.60
2014,02,13,03,47,16.30
2014,02,13,03,48,16.60
2014,02,13,03,49,12.20
2014,02,13,03,50,11.10
2014,02,13,03,51,17.00
2014,02,13,03,52,17.40
2014,02,13,03,53,15.50
2014,02,13,03,54,18.10
2014,02,13,03,55,21.40
2014,02,13,03,56,15.70
2014,02,13,03,57,21.50
2014,02,13,03,58,18.00
2014,02,13,03,59,13.80
2014,02,13,04,00,17.40
2014,02,13,04,01,17.70
2014,02,13,04,02,11.50
2014,02,13,04,03,17.80
2014,02,13,04,04,15.80
2014,02,13,04,05,11.20
2014,02,13,04,06,6.20
2014,02,13,04,07,5.40
2014,02,13,04,08,5.30
2014,02,13,04,09,6.10
2014,02,13,04,10,13.30
2014,02,13,04,11,7.00
2014,02,13,04,12,2.70
2014,02,13,04,13,9.80
2014,02,13,04,14,9.00
2014,02,13,04,15,14.00
2014,02,13,04,16,13.10
2014,02,13,04,17,9.90
2014,02,13,04,18,10.00
2014,02,13,04,19,17.30
2014,02,13,04,20,13.20
2014,02,13,04,21,20.30
2014,02,13,04,22,23.70
2014,02,13,04,23,18.80
2014,02,13,04,24,17.40
2014,02,13,04,25,12.70
2014,02,13,04,26,13.40
2014,02,13,04,27,12.70
2014,02,13,04,28,16.40
2014,02,13,04,29,13.20
2014,02,13,04,30,11.60
2014,02,13,04,31,13.30
2014,02,13,04,32,9.70
2014,02,13,04,33,8.70
2014,02,13,04,34,7.80
2014,02,13,04,35,10.00
2014,02,13,04,36,13.60
2014,02,13,04,37,10.00
2014,02,13,04,38,12.00
2014,02,13,04,39,15.20
2014,02,13,04,40,9.90
2014,02,13,04,41,9.20
2014,02,13,04,42,18.70
2014,02,13,04,43,7.00
2014,02,13,04,44,18.30
2014,02,13,04,45,11.40
2014,02,13,04,46,11.20
2014,02,13,04,47,13.60
2014,02,13,04,48,10.70
2014,02,13,04,49,7.10
2014,02,13,04,50,10.50
2014,02,13,04,51,9.70
2014,02,13,04,52,10.00
2014,02,13,04,53,15.30
2014,02,13,04,54,14.00
2014,02,13,04,55,11.90
2014,02,13,04,56,11.60
2014,02,13,04,57,11.60
2014,02,13,04,58,14.60
2014,02,13,04,59,11.30
2014,02,13,05,00,10.70
2014,02,13,05,01,14.00
2014,02,13,05,02,11.00
2014,02,13,05,03,7.70
2014,02,13,05,04,8.00
2014,02,13,05,05,14.50
2014,02,13,05,06,14.00
2014,02,13,05,07,6.70
2014,02,13,05,08,6.30
2014,02,13,05,09,10.20
2014,02,13,05,10,9.10
2014,02,13,05,11,14.70
2014,02,13,05,12,11.80
2014,02,13,05,13,11.50
2014,02,13,05,14,7.50
2014,02,13,05,15,6.40
2014,02,13,05,16,6.10
2014,02,13,05,17,9.00
2014,02,13,05,18,4.20
2014,02,13,05,19,5.40
2014,02,13,05,20,5.50
2014,02,13,05,21,9.70
2014,02,13,05,22,11.00
2014,02,13,05,23,4.40
2014,02,13,05,24,6.30
2014,02,13,05,25,7.30
2014,02,13,05,26,4.30
2014,02,13,05,27,7.10
2014,02,13,05,28,6.70
2014,02,13,05,29,8.60
2014,02,13,05,30,10.80
2014,02,13,05,31,10.20
2014,02,13,05,32,8.90
2014,02,13,05,33,2.60
2014,02,13,05,34,8.40
2014,02,13,05,35,12.00
2014,02,13,05,36,6.40
2014,02,13,05,37,10.30
2014,02,13,05,38,5.40
2014,02,13,05,39,11.00
2014,02,13,05,40,11.90
2014,02,13,05,41,6.50
2014,02,13,05,42,6.90
2014,02,13,05,43,8.00
2014,02,13,05,44,11.80
2014,02,13,05,45,6.20
2014,02,13,05,46,9.40
2014,02,13,05,47,5.20
2014,02,13,05,48,8.10
2014,02,13,05,49,12.10
2014,02,13,05,50,9.00
2014,02,13,05,51,9.50
2014,02,13,05,52,8.20
2014,02,13,05,53,7.10
2014,02,13,05,54,5.70
2014,02,13,05,55,8.10
2014,02,13,05,56,9.50
2014,02,13,05,57,6.40
2014,02,13,05,58,4.00
2014,02,13,05,59,3.40
2014,02,13,06,00,4.80
2014,02,13,06,01,4.40
2014,02,13,06,02,6.60
2014,02,13,06,03,8.00
2014,02,13,06,04,5.40
2014,02,13,06,05,8.50
2014,02,13,06,06,10.20
2014,02,13,06,07,7.70
2014,02,13,06,08,7.90
2014,02,13,06,09,8.50
2014,02,13,06,10,9.50
2014,02,13,06,11,5.40
2014,02,13,06,12,13.20
2014,02,13,06,13,10.00
2014,02,13,06,14,4.40
2014,02,13,06,15,8.30
2014,02,13,06,16,10.40
2014,02,13,06,17,10.40
2014,02,13,06,18,6.70
2014,02,13,06,19,12.50
2014,02,13,06,20,9.90
2014,02,13,06,21,7.70
2014,02,13,06,22,8.50
2014,02,13,06,23,5.80
2014,02,13,06,24,11.50
2014,02,13,06,25,4.80
2014,02,13,06,26,5.10
2014,02,13,06,27,12.70
2014,02,13,06,28,12.00
2014,02,13,06,29,7.40
2014,02,13,06,30,6.70
2014,02,13,06,31,7.10
2014,02,13,06,32,12.40
2014,02,13,06,33,13.20
2014,02,13,06,34,12.90
2014,02,13,06,35,14.40
2014,02,13,06,36,16.50
2014,02,13,06,37,12.30
2014,02,13,06,38,19.80
2014,02,13,06,39,11.60
2014,02,13,06,40,18.10
2014,02,13,06,41,12.60
2014,02,13,06,42,13.90
2014,02,13,06,43,16.70
2014,02,13,06,44,16.50
2014,02,13,06,45,13.90
2014,02,13,06,46,16.10
2014,02,13,06,47,15.60
2014,02,13,06,48,11.60
2014,02,13,06,49,15.60
2014,02,13,06,50,16.60
2014,02,13,06,51,14.50
2014,02,13,06,52,10.20
2014,02,13,06,53,8.20
2014,02,13,06,54,10.40
2014,02,13,06,55,5.90
2014,02,13,06,56,7.20
2014,02,13,06,57,7.20
2014,02,13,06,58,9.80
2014,02,13,06,59,14.80
2014,02,13,07,00,14.20
2014,02,13,07,01,13.40
2014,02,13,07,02,6.20
2014,02,13,07,03,3.40
2014,02,13,07,04,11.10
2014,02,13,07,05,15.80
2014,02,13,07,06,10.30
2014,02,13,07,07,10.90
2014,02,13,07,08,6.70
2014,02,13,07,09,7.20
2014,02,13,07,10,8.70
2014,02,13,07,11,10.40
2014,02,13,07,12,4.80
2014,02,13,07,13,3.90
2014,02,13,07,14,8.50
2014,02,13,07,15,8.90
2014,02,13,07,16,6.10
2014,02,13,07,17,13.70
2014,02,13,07,18,4.70
2014,02,13,07,19,8.10
2014,02,13,07,20,5.70
2014,02,13,07,21,6.30
2014,02,13,07,22,2.70
2014,02,13,07,23,7.20
2014,02,13,07,24,9.80
2014,02,13,07,25,8.60
2014,02,13,07,26,9.40
2014,02,13,07,27,7.40
2014,02,13,07,28,5.10
2014,02,13,07,29,2.60
2014,02,13,07,30,5.20
2014,02,13,07,31,12.30
2014,02,13,07,32,10.80
2014,02,13,07,33,7.00
2014,02,13,07,34,4.50
2014,02,13,07,35,10.10
2014,02,13,07,36,8.90
2014,02,13,07,37,6.90
2014,02,13,07,38,9.10
2014,02,13,07,39,5.30
2014,02,13,07,40,5.60
2014,02,13,07,41,2.40
2014,02,13,07,42,5.40
2014,02,13,07,43,8.00
2014,02,13,07,44,5.50
2014,02,13,07,45,5.00
2014,02,13,07,46,3.00
2014,02,13,07,47,3.80
2014,02,13,07,48,1.30
2014,02,13,07,49,4.20
2014,02,13,07,50,3.30
2014,02,13,07,51,4.20
2014,02,13,07,52,2.70
2014,02,13,07,53,2.30
2014,02,13,07,54,4.00
2014,02,13,07,55,10.40
2014,02,13,07,56,9.80
2014,02,13,07,57,2.80
2014,02,13,07,58,3.10
2014,02,13,07,59,5.00
2014,02,13,08,00,0.40
2014,02,13,08,01,1.50
2014,02,13,08,02,4.70
2014,02,13,08,03,2.60
2014,02,13,08,04,8.30
2014,02,13,08,05,3.50
2014,02,13,08,06,6.90
2014,02,13,08,07,7.70
2014,02,13,08,08,6.20
2014,02,13,08,09,5.70
2014,02,13,08,10,7.40
2014,02,13,08,11,5.70
2014,02,13,08,12,7.50
2014,02,13,08,13,9.50
2014,02,13,08,14,4.10
2014,02,13,08,15,4.20
2014,02,13,08,16,8.30
2014,02,13,08,17,10.40
2014,02,13,08,18,7.30
2014,02,13,08,19,6.40
2014,02,13,08,20,5.70
2014,02,13,08,21,10.00
2014,02,13,08,22,5.60
2014,02,13,08,23,6.70
2014,02,13,08,24,7.80
2014,02,13,08,25,6.20
2014,02,13,08,26,5.70
2014,02,13,08,27,7.70
2014,02,13,08,28,5.60
2014,02,13,08,29,6.00
2014,02,13,08,30,7.10
2014,02,13,08,31,5.40
2014,02,13,08,32,11.00
2014,02,13,08,33,10.70
2014,02,13,08,34,9.80
2014,02,13,08,35,12.60
2014,02,13,08,36,9.50
2014,02,13,08,37,11.10
2014,02,13,08,38,14.60
2014,02,13,08,39,12.10
2014,02,13,08,40,13.80
2014,02,13,08,41,11.60
2014,02,13,08,42,8.90
2014,02,13,08,43,9.50
2014,02,13,08,44,13.90
2014,02,13,08,45,9.90
2014,02,13,08,46,4.90
2014,02,13,08,47,4.10
2014,02,13,08,48,9.80
2014,02,13,08,49,9.80
2014,02,13,08,50,6.70
2014,02,13,08,51,9.50
2014,02,13,08,52,4.40
2014,02,13,08,53,4.50
2014,02,13,08,54,8.50
2014,02,13,08,55,6.50
2014,02,13,08,56,8.30
2014,02,13,08,57,8.00
2014,02,13,08,58,7.50
2014,02,13,08,59,5.90
2014,02,13,09,00,7.80
2014,02,13,09,01,5.10
2014,02,13,09,02,5.40
2014,02,13,09,03,2.20
2014,02,13,09,04,5.60
2014,02,13,09,05,10.40
2014,02,13,09,06,8.10
2014,02,13,09,07,2.90
2014,02,13,09,08,5.30
2014,02,13,09,09,4.80
2014,02,13,09,10,4.40
2014,02,13,09,11,7.40
2014,02,13,09,12,1.90
2014,02,13,09,13,2.10
2014,02,13,09,14,6.90
2014,02,13,09,15,6.10
2014,02,13,09,16,6.70
2014,02,13,09,17,8.70
2014,02,13,09,18,5.90
2014,02,13,09,19,1.20
2014,02,13,09,20,7.30
2014,02,13,09,21,10.30
2014,02,13,09,22,10.70
2014,02,13,09,23,8.70
2014,02,13,09,24,7.10
2014,02,13,09,25,6.70
2014,02,13,09,26,8.50
2014,02,13,09,27,8.70
2014,02,13,09,28,8.70
2014,02,13,09,29,9.10
2014,02,13,09,30,9.40
2014,02,13,09,31,7.90
2014,02,13,09,32,8.80
2014,02,13,09,33,10.00
2014,02,13,09,34,9.10
2014,02,13,09,35,10.80
2014,02,13,09,36,10.90
2014,02,13,09,37,13.80
2014,02,13,09,38,10.70
2014,02,13,09,39,8.10
2014,02,13,09,40,12.30
2014,02,13,09,41,12.70
2014,02,13,09,42,8.40
2014,02,13,09,43,8.70
2014,02,13,09,44,9.70
2014,02,13,09,45,12.00
2014,02,13,09,46,7.40
2014,02,13,09,47,7.10
2014,02,13,09,48,7.90
2014,02,13,09,49,10.30
2014,02,13,09,50,15.30
2014,02,13,09,51,7.70
2014,02,13,09,52,9.80
2014,02,13,09,53,7.00
2014,02,13,09,54,6.30
2014,02,13,09,55,6.40
2014,02,13,09,56,7.80
2014,02,13,09,57,4.50
2014,02,13,09,58,4.10
2014,02,13,09,59,9.00
2014,02,13,10,00,8.00
2014,02,13,10,01,5.60
2014,02,13,10,02,6.40
2014,02,13,10,03,5.60
2014,02,13,10,04,8.10
2014,02,13,10,05,10.30
2014,02,13,10,06,6.70
2014,02,13,10,07,6.00
2014,02,13,10,08,4.70
2014,02,13,10,09,2.60
2014,02,13,10,10,4.40
2014,02,13,10,11,11.30
2014,02,13,10,12,11.40
2014,02,13,10,13,8.00
2014,02,13,10,14,9.30
2014,02,13,10,15,7.80
2014,02,13,10,16,4.10
2014,02,13,10,17,8.30
2014,02,13,10,18,7.30
2014,02,13,10,19,9.70
2014,02,13,10,20,4.00
2014,02,13,10,21,2.80
2014,02,13,10,22,4.70
2014,02,13,10,23,4.80
2014,02,13,10,24,7.80
2014,02,13,10,25,9.90
2014,02,13,10,26,7.30
2014,02,13,10,27,6.60
2014,02,13,10,28,8.70
2014,02,13,10,29,8.40
2014,02,13,10,30,5.40
2014,02,13,10,31,5.40
2014,02,13,10,32,10.40
2014,02,13,10,33,10.10
2014,02,13,10,34,8.40
2014,02,13,10,35,8.60
2014,02,13,10,36,5.30
2014,02,13,10,37,10.70
2014,02,13,10,38,12.00
2014,02,13,10,39,9.10
2014,02,13,10,40,11.60
2014,02,13,10,41,9.40
2014,02,13,10,42,5.30
2014,02,13,10,43,5.70
2014,02,13,10,44,11.20
2014,02,13,10,45,7.20
2014,02,13,10,46,8.20
2014,02,13,10,47,11.40
2014,02,13,10,48,7.70
2014,02,13,10,49,6.70
2014,02,13,10,50,8.30
2014,02,13,10,51,8.90
2014,02,13,10,52,10.50
2014,02,13,10,53,11.10
2014,02,13,10,54,3.80
2014,02,13,10,55,9.40
2014,02,13,10,56,11.80
2014,02,13,10,57,12.50
2014,02,13,10,58,7.40
2014,02,13,10,59,13.30
2014,02,13,11,00,6.10
2014,02,13,11,01,9.00
2014,02,13,11,02,5.90
2014,02,13,11,03,6.40
2014,02,13,11,04,6.90
2014,02,13,11,05,12.90
2014,02,13,11,06,7.60
2014,02,13,11,07,9.50
2014,02,13,11,08,6.00
2014,02,13,11,09,9.90
2014,02,13,11,10,8.10
2014,02,13,11,11,12.50
2014,02,13,11,12,8.20
2014,02,13,11,13,6.70
2014,02,13,11,14,9.70
2014,02,13,11,15,8.10
2014,02,13,11,16,9.40
2014,02,13,11,17,7.50
2014,02,13,11,18,7.20
2014,02,13,11,19,8.50
2014,02,13,11,20,8.10
2014,02,13,11,21,5.70
2014,02,13,11,22,7.10
2014,02,13,11,23,5.50
2014,02,13,11,24,5.40
2014,02,13,11,25,4.10
2014,02,13,11,26,6.40
2014,02,13,11,27,7.40
2014,02,13,11,28,6.00
2014,02,13,11,29,4.80
2014,02,13,11,30,5.80
2014,02,13,11,31,1.20
2014,02,13,11,32,8.60
2014,02,13,11,33,9.20
2014,02,13,11,34,10.40
2014,02,13,11,35,10.20
2014,02,13,11,36,12.00
2014,02,13,11,37,6.80
2014,02,13,11,38,4.40
2014,02,13,11,39,5.10
2014,02,13,11,40,10.20
2014,02,13,11,41,6.00
2014,02,13,11,42,6.40
2014,02,13,11,43,6.40
2014,02,13,11,44,5.60
2014,02,13,11,45,6.40
2014,02,13,11,46,10.70
2014,02,13,11,47,7.50
2014,02,13,11,48,9.80
2014,02,13,11,49,6.70
2014,02,13,11,50,7.20
2014,02,13,11,51,6.60
2014,02,13,11,52,2.10
2014,02,13,11,53,7.80
2014,02,13,11,54,7.90
2014,02,13,11,55,9.00
2014,02,13,11,56,8.60
2014,02,13,11,57,7.30
2014,02,13,11,58,9.20
2014,02,13,11,59,7.50
2014,02,13,12,00,9.00
2014,02,13,12,01,9.50
2014,02,13,12,02,8.20
2014,02,13,12,03,6.30
2014,02,13,12,04,8.30
2014,02,13,12,05,12.70
2014,02,13,12,06,10.20
2014,02,13,12,07,11.40
2014,02,13,12,08,8.60
2014,02,13,12,09,14.10
2014,02,13,12,10,12.90
2014,02,13,12,11,13.80
2014,02,13,12,12,12.40
2014,02,13,12,13,11.10
2014,02,13,12,14,10.80
2014,02,13,12,15,12.80
2014,02,13,12,16,9.40
2014,02,13,12,17,8.90
2014,02,13,12,18,8.40
2014,02,13,12,19,7.10
2014,02,13,12,20,5.30
2014,02,13,12,21,8.00
2014,02,13,12,22,10.10
2014,02,13,12,23,9.90
2014,02,13,12,24,11.30
2014,02,13,12,25,9.60
2014,02,13,12,26,9.60
2014,02,13,12,27,11.80
2014,02,13,12,28,12.80
2014,02,13,12,29,11.50
2014,02,13,12,30,13.40
2014,02,13,12,31,10.60
2014,02,13,12,32,13.90
2014,02,13,12,33,7.40
2014,02,13,12,34,10.40
2014,02,13,12,35,11.00
2014,02,13,12,36,8.20
2014,02,13,12,37,8.30
2014,02,13,12,38,9.90
2014,02,13,12,39,6.90
2014,02,13,12,40,4.10
2014,02,13,12,41,9.60
2014,02,13,12,42,9.40
2014,02,13,12,43,17.10
2014,02,13,12,44,10.00
2014,02,13,12,45,12.10
2014,02,13,12,46,12.90
2014,02,13,12,47,11.00
2014,02,13,12,48,7.10
2014,02,13,12,49,11.10
2014,02,13,12,50,9.00
2014,02,13,12,51,6.70
2014,02,13,12,52,15.70
2014,02,13,12,53,12.60
2014,02,13,12,54,9.40
2014,02,13,12,55,7.40
2014,02,13,12,56,6.10
2014,02,13,12,57,9.70
2014,02,13,12,58,7.00
2014,02,13,12,59,7.60
2014,02,13,13,00,8.60
2014,02,13,13,01,12.50
2014,02,13,13,02,6.80
2014,02,13,13,03,6.10
2014,02,13,13,04,7.70
2014,02,13,13,05,4.90
2014,02,13,13,06,4.60
2014,02,13,13,07,9.00
2014,02,13,13,08,8.90
2014,02,13,13,09,6.80
2014,02,13,13,10,9.70
2014,02,13,13,11,5.80
2014,02,13,13,12,4.20
2014,02,13,13,13,4.70
2014,02,13,13,14,8.80
2014,02,13,13,15,8.90
2014,02,13,13,16,7.50
2014,02,13,13,17,10.40
2014,02,13,13,18,10.50
2014,02,13,13,19,11.00
2014,02,13,13,20,10.10
2014,02,13,13,21,12.70
2014,02,13,13,22,13.10
2014,02,13,13,23,11.10
2014,02,13,13,24,12.40
2014,02,13,13,25,10.60
2014,02,13,13,26,7.70
2014,02,13,13,27,11.90
2014,02,13,13,28,11.30
2014,02,13,13,29,10.80
2014,02,13,13,30,11.30
2014,02,13,13,31,12.30
2014,02,13,13,32,12.90
2014,02,13,13,33,15.70
2014,02,13,13,34,13.60
2014,02,13,13,35,13.30
2014,02,13,13,36,15.80
2014,02,13,13,37,15.60
2014,02,13,13,38,14.60
2014,02,13,13,39,12.20
2014,02,13,13,40,15.80
2014,02,13,13,41,11.10
2014,02,13,13,42,10.40
2014,02,13,13,43,14.10
2014,02,13,13,44,10.80
2014,02,13,13,45,8.10
2014,02,13,13,46,9.70
2014,02,13,13,47,9.60
2014,02,13,13,48,11.00
2014,02,13,13,49,13.70
2014,02,13,13,50,12.60
2014,02,13,13,51,14.50
2014,02,13,13,52,9.40
2014,02,13,13,53,8.40
2014,02,13,13,54,9.40
2014,02,13,13,55,9.50
2014,02,13,13,56,9.70
2014,02,13,13,57,10.40
2014,02,13,13,58,13.30
2014,02,13,13,59,11.60
2014,02,13,14,00,7.00
2014,02,13,14,01,7.30
2014,02,13,14,02,11.10
2014,02,13,14,03,6.30
2014,02,13,14,04,6.90
2014,02,13,14,05,10.70
2014,02,13,14,06,10.30
2014,02,13,14,07,6.50
2014,02,13,14,08,6.20
2014,02,13,14,09,6.10
2014,02,13,14,10,8.20
2014,02,13,14,11,6.70
2014,02,13,14,12,9.30
2014,02,13,14,13,8.20
2014,02,13,14,14,7.30
2014,02,13,14,15,8.70
2014,02,13,14,16,8.40
2014,02,13,14,17,6.50
2014,02,13,14,18,11.80
2014,02,13,14,19,12.90
2014,02,13,14,20,10.50
2014,02,13,14,21,12.20
2014,02,13,14,22,10.70
2014,02,13,14,23,12.90
2014,02,13,14,24,10.50
2014,02,13,14,25,10.40
2014,02,13,14,26,9.70
2014,02,13,14,27,6.50
2014,02,13,14,28,5.80
2014,02,13,14,29,9.80
2014,02,13,14,30,7.40
2014,02,13,14,31,5.10
2014,02,13,14,32,8.50
2014,02,13,14,33,9.40
2014,02,13,14,34,16.10
2014,02,13,14,35,9.70
2014,02,13,14,36,7.80
2014,02,13,14,37,5.80
2014,02,13,14,38,4.30
2014,02,13,14,39,6.70
2014,02,13,14,40,7.50
2014,02,13,14,41,14.00
2014,02,13,14,42,18.40
2014,02,13,14,43,11.50
2014,02,13,14,44,12.30
2014,02,13,14,45,12.60
2014,02,13,14,46,10.80
2014,02,13,14,47,13.80
2014,02,13,14,48,8.20
2014,02,13,14,49,7.30
2014,02,13,14,50,6.90
2014,02,13,14,51,8.90
2014,02,13,14,52,12.10
2014,02,13,14,53,10.60
2014,02,13,14,54,12.60
2014,02,13,14,55,13.40
2014,02,13,14,56,8.30
2014,02,13,14,57,9.20
2014,02,13,14,58,7.40
2014,02,13,14,59,11.70
2014,02,13,15,00,8.80
2014,02,13,15,01,12.90
2014,02,13,15,02,18.00
2014,02,13,15,03,13.00
2014,02,13,15,04,14.00
2014,02,13,15,05,10.30
2014,02,13,15,06,12.00
2014,02,13,15,07,9.10
2014,02,13,15,08,14.10
2014,02,13,15,09,12.50
2014,02,13,15,10,9.20
2014,02,13,15,11,8.00
2014,02,13,15,12,7.60
2014,02,13,15,13,7.00
2014,02,13,15,14,7.70
2014,02,13,15,15,9.20
2014,02,13,15,16,7.90
2014,02,13,15,17,14.30
2014,02,13,15,18,10.80
2014,02,13,15,19,13.10
2014,02,13,15,20,17.00
2014,02,13,15,21,13.70
2014,02,13,15,22,12.90
2014,02,13,15,23,11.30
2014,02,13,15,24,12.80
2014,02,13,15,25,13.20
2014,02,13,15,26,8.60
2014,02,13,15,27,10.90
2014,02,13,15,28,13.50
2014,02,13,15,29,10.60
2014,02,13,15,30,8.40
2014,02,13,15,31,9.80
2014,02,13,15,32,9.40
2014,02,13,15,33,10.20
2014,02,13,15,34,8.60
2014,02,13,15,35,9.90
2014,02,13,15,36,14.20
2014,02,13,15,37,14.30
2014,02,13,15,38,12.50
2014,02,13,15,39,11.80
2014,02,13,15,40,12.40
2014,02,13,15,41,10.30
2014,02,13,15,42,9.30
2014,02,13,15,43,9.10
2014,02,13,15,44,13.00
2014,02,13,15,45,14.20
2014,02,13,15,46,8.00
2014,02,13,15,47,8.40
2014,02,13,15,48,6.10
2014,02,13,15,49,11.10
2014,02,13,15,50,13.40
2014,02,13,15,51,10.20
2014,02,13,15,52,10.60
2014,02,13,15,53,7.70
2014,02,13,15,54,10.50
2014,02,13,15,55,10.50
2014,02,13,15,56,10.90
2014,02,13,15,57,7.70
2014,02,13,15,58,11.60
2014,02,13,15,59,9.40
2014,02,13,16,00,5.20
2014,02,13,16,01,10.70
2014,02,13,16,02,9.80
2014,02,13,16,03,10.70
2014,02,13,16,04,7.10
2014,02,13,16,05,6.10
2014,02,13,16,06,11.90
2014,02,13,16,07,12.30
2014,02,13,16,08,9.70
2014,02,13,16,09,5.80
2014,02,13,16,10,4.10
2014,02,13,16,11,13.10
2014,02,13,16,12,10.70
2014,02,13,16,13,10.70
2014,02,13,16,14,8.00
2014,02,13,16,15,7.30
2014,02,13,16,16,7.70
2014,02,13,16,17,6.50
2014,02,13,16,18,8.40
2014,02,13,16,19,6.50
2014,02,13,16,20,3.60
2014,02,13,16,21,2.20
2014,02,13,16,22,4.60
2014,02,13,16,23,15.60
2014,02,13,16,24,11.60
2014,02,13,16,25,7.50
2014,02,13,16,26,5.50
2014,02,13,16,27,9.30
2014,02,13,16,28,10.70
2014,02,13,16,29,7.40
2014,02,13,16,30,8.80
2014,02,13,16,31,8.70
2014,02,13,16,32,7.10
2014,02,13,16,33,12.60
2014,02,13,16,34,11.90
2014,02,13,16,35,7.70
2014,02,13,16,36,11.00
2014,02,13,16,37,5.70
2014,02,13,16,38,8.00
2014,02,13,16,39,11.60
2014,02,13,16,40,11.40
2014,02,13,16,41,8.40
2014,02,13,16,42,7.70
2014,02,13,16,43,10.00
2014,02,13,16,44,12.60
2014,02,13,16,45,9.40
2014,02,13,16,46,8.00
2014,02,13,16,47,9.40
2014,02,13,16,48,7.30
2014,02,13,16,49,9.20
2014,02,13,16,50,11.90
2014,02,13,16,51,8.80
2014,02,13,16,52,6.70
2014,02,13,16,53,11.60
2014,02,13,16,54,13.00
2014,02,13,16,55,8.30
2014,02,13,16,56,11.30
2014,02,13,16,57,6.60
2014,02,13,16,58,7.80
2014,02,13,16,59,8.80
2014,02,13,17,00,7.40
2014,02,13,17,01,5.70
2014,02,13,17,02,11.90
2014,02,13,17,03,13.50
2014,02,13,17,04,7.60
2014,02,13,17,05,10.70
2014,02,13,17,06,11.50
2014,02,13,17,07,10.60
2014,02,13,17,08,10.80
2014,02,13,17,09,7.80
2014,02,13,17,10,5.80
2014,02,13,17,11,9.60
2014,02,13,17,12,6.10
2014,02,13,17,13,3.60
2014,02,13,17,14,5.80
2014,02,13,17,15,6.10
2014,02,13,17,16,10.20
2014,02,13,17,17,8.10
2014,02,13,17,18,6.00
2014,02,13,17,19,2.80
2014,02,13,17,20,9.10
2014,02,13,17,21,7.30
2014,02,13,17,22,7.80
2014,02,13,17,23,8.70
2014,02,13,17,24,7.20
2014,02,13,17,25,6.80
2014,02,13,17,26,10.90
2014,02,13,17,27,7.70
2014,02,13,17,28,6.00
2014,02,13,17,29,6.70
2014,02,13,17,30,7.40
2014,02,13,17,31,6.90
2014,02,13,17,32,8.50
2014,02,13,17,33,5.30
2014,02,13,17,34,10.90
2014,02,13,17,35,5.90
2014,02,13,17,36,5.70
2014,02,13,17,37,4.00
2014,02,13,17,38,8.40
2014,02,13,17,39,9.00
2014,02,13,17,40,9.10
2014,02,13,17,41,4.20
2014,02,13,17,42,3.10
2014,02,13,17,43,5.90
2014,02,13,17,44,2.60